Batavia, OH

2:54 PM EST on February 06, 2016 (GMT -0500)
Clermont County, Batavia

Weather History for KI69 - January, 2014

Change the Weather History Date:

Thursday, January 2, 2014

  Actual Average (KLUK) Record (KLUK)
Temperature  
Mean Temperature 26 °F -  
Max Temperature 37 °F 39 °F 64 °F (2000)
Min Temperature 14 °F 24 °F 3 °F (1968)
Degree Days  
Heating Degree Days 40    
Moisture  
Dew Point 25 °F    
Average Humidity 90    
Maximum Humidity 100    
Minimum Humidity 65    
Precipitation  
Precipitation 0.22 in - - ()
Sea Level Pressure  
Sea Level Pressure 29.95 in    
Wind  
Wind Speed 4 mph (NNW)    
Max Wind Speed 18 mph    
Max Gust Speed 25 mph    
Visibility 4 miles    
Events Snow    
Averages and records for this station are not official NWS values.
T = Trace of Precipitation, MM = Missing Value Source: NWS Daily Summary

Daily Weather History Graph

Daily Weather History Graph

Search for Another Location

Airport or City:

Trip Planner

Search our weather history database for the weather conditions in past years. The results will help you decide how hot, cold, wet, or windy it might be!

Date:

Astronomy

Jan. 02, 2014 Rise Set
Actual Time 7:56 AM EST 5:25 PM EST
Civil Twilight 7:26 AM EST 5:55 PM EST
Nautical Twilight 6:52 AM EST 6:29 PM EST
Astronomical Twilight 6:20 AM EST 7:01 PM EST
Moon 8:37 AM EST (1/2) 7:20 PM EST (1/2)
Length of Visible Light 10h 29m
Length of Day
9h 29m
New Moon, 2% of the Moon is Illuminated
Jan 2
New Moon
Jan 7
First Quarter
Jan 15
Full
Jan 24
Last Quarter
Jan 30
New

Hourly Weather History & Observations

Time (EST) Temp. Windchill Dew Point Humidity Pressure Visibility Wind Dir Wind Speed Gust Speed Precip Events Conditions
12:16 AM 37.4 °F 34.9 °F 28.4 °F 70% 30.00 in 10.0 mi South 3.5 mph - N/A   Overcast
12:36 AM 37.4 °F - 26.6 °F 65% 29.99 in 10.0 mi Calm Calm - N/A   Overcast
12:56 AM 35.6 °F - 28.4 °F 75% 29.99 in 10.0 mi Calm Calm - N/A   Overcast
1:16 AM 37.4 °F - 26.6 °F 65% 29.98 in 10.0 mi Calm Calm - N/A   Overcast
1:36 AM 35.6 °F - 28.4 °F 75% 29.97 in 10.0 mi Calm Calm - N/A   Overcast
1:56 AM 37.4 °F - 26.6 °F 65% 29.97 in 10.0 mi Calm Calm - N/A   Overcast
2:16 AM 35.6 °F - 28.4 °F 75% 29.97 in 10.0 mi Calm Calm - N/A   Overcast
2:36 AM 35.6 °F - 28.4 °F 75% 29.98 in 10.0 mi Calm Calm - N/A   Overcast
2:56 AM 35.6 °F 31.7 °F 28.4 °F 75% 29.98 in 7.0 mi WNW 4.6 mph - N/A Snow Light Snow
3:16 AM 35.6 °F 31.7 °F 32.0 °F 87% 29.99 in 1.5 mi WNW 4.6 mph - N/A Snow Light Snow
3:36 AM 33.8 °F - 32.0 °F 93% 29.97 in 3.0 mi Calm Calm - N/A Snow Light Snow
3:55 AM 33.8 °F - 32.0 °F 93% 29.96 in 1.8 mi Calm Calm - 0.02 in Snow Light Snow
4:16 AM 33.8 °F - 33.8 °F 100% 29.95 in 1.8 mi Calm Calm - 0.02 in Snow Light Snow
4:36 AM 33.8 °F - 33.8 °F 100% 29.93 in 0.8 mi Calm Calm - 0.04 in Snow Light Snow
4:55 AM 33.8 °F - 33.8 °F 100% 29.91 in 0.8 mi Calm Calm - 0.06 in Snow Light Snow
5:16 AM 33.8 °F - 33.8 °F 100% 29.89 in 0.8 mi Calm Calm - 0.02 in Snow Light Snow
5:36 AM 33.8 °F - 33.8 °F 100% 29.88 in 1.0 mi Calm Calm - 0.03 in Snow Light Snow
5:55 AM 33.8 °F - 33.8 °F 100% 29.87 in 2.0 mi Calm Calm - 0.03 in Snow Light Snow
6:16 AM 33.8 °F - 33.8 °F 100% 29.87 in 1.8 mi Calm Calm - N/A Snow Light Snow
6:36 AM 33.8 °F - 33.8 °F 100% 29.86 in 2.0 mi Calm Calm - 0.01 in Snow Light Snow
6:55 AM 33.8 °F - 33.8 °F 100% 29.85 in 1.2 mi Calm Calm - 0.02 in Snow Light Snow
7:16 AM 33.8 °F - 33.8 °F 100% 29.84 in 1.2 mi Calm Calm - N/A Snow Light Snow
7:36 AM 33.8 °F - 33.8 °F 100% 29.83 in 1.0 mi Calm Calm - 0.01 in Snow Light Snow
7:55 AM 33.8 °F - 33.8 °F 100% 29.83 in 1.2 mi Calm Calm - 0.02 in Snow Light Snow
8:16 AM 33.8 °F - 33.8 °F 100% 29.83 in 0.8 mi Calm Calm - N/A   Overcast
8:36 AM 33.8 °F - 33.8 °F 100% 29.82 in 1.5 mi Calm Calm - N/A   Overcast
8:56 AM 33.8 °F - 33.8 °F 100% 29.83 in 0.5 mi Calm Calm - N/A Snow Light Snow
9:16 AM 33.8 °F - 33.8 °F 100% 29.81 in 0.5 mi Calm Calm - 0.01 in Snow Light Snow
9:36 AM 33.8 °F - 33.8 °F 100% 29.82 in 0.2 mi Calm Calm - 0.03 in Snow Light Snow
9:56 AM 33.8 °F - 33.8 °F 100% 29.82 in 0.8 mi Calm Calm - 0.04 in Snow Light Snow
10:16 AM 33.8 °F - 33.8 °F 100% 29.82 in 0.8 mi Calm Calm - 0.01 in Snow Light Snow
10:36 AM 33.8 °F 30.8 °F 33.8 °F 100% 29.82 in 1.2 mi NW 3.5 mph - 0.02 in Snow Light Snow
10:56 AM 33.8 °F 30.8 °F 33.8 °F 100% 29.81 in 1.0 mi NNW 3.5 mph - 0.03 in Snow Light Snow
11:16 AM 33.8 °F 29.6 °F 33.8 °F 100% 29.81 in 1.0 mi NNW 4.6 mph - N/A Snow Light Snow
11:36 AM 33.8 °F 28.6 °F 33.8 °F 100% 29.81 in 1.2 mi North 5.8 mph - N/A Snow Light Snow
11:56 AM 32.0 °F 22.5 °F 32.0 °F 100% 29.80 in 1.5 mi North 12.7 mph - N/A Snow Light Snow
12:16 PM 32.0 °F 24.8 °F 32.0 °F 100% 29.80 in 1.8 mi North 8.1 mph - N/A Snow Light Snow
12:36 PM 30.2 °F 20.8 °F 30.2 °F 100% 29.80 in 1.2 mi NNW 11.5 mph - N/A Snow Light Snow
12:56 PM 30.2 °F 21.9 °F 30.2 °F 100% 29.80 in 1.5 mi North 9.2 mph - N/A Snow Light Snow
1:16 PM 28.4 °F 19.7 °F 28.4 °F 100% 29.80 in 1.5 mi North 9.2 mph - N/A Snow Light Snow
1:36 PM 28.4 °F 16.6 °F 28.4 °F 100% 29.82 in 2.5 mi NNW 16.1 mph - N/A Snow Light Snow
1:56 PM 26.6 °F 14.3 °F 23.0 °F 86% 29.84 in 3.0 mi NNW 16.1 mph 19.6 mph N/A Snow Light Snow
2:16 PM 24.8 °F 14.6 °F 23.0 °F 93% 29.85 in 3.0 mi NNW 10.4 mph 18.4 mph N/A Snow Light Snow
2:36 PM 23.0 °F 10.6 °F 21.2 °F 93% 29.86 in 3.0 mi NNW 13.8 mph 20.7 mph N/A Snow Light Snow
2:56 PM 23.0 °F 13.1 °F 19.4 °F 86% 29.87 in 10.0 mi NNW 9.2 mph - N/A   Overcast
3:16 PM 23.0 °F 13.9 °F 19.4 °F 86% 29.89 in 10.0 mi North 8.1 mph - N/A Snow Light Snow
3:36 PM 21.2 °F 9.5 °F 19.4 °F 93% 29.90 in 7.0 mi NNW 11.5 mph - N/A Snow Light Snow
3:56 PM 21.2 °F 8.9 °F 17.6 °F 86% 29.92 in 2.5 mi NNW 12.7 mph 17.3 mph N/A Snow Light Snow
4:16 PM 21.2 °F 12.6 °F 17.6 °F 86% 29.94 in 3.0 mi NNW 6.9 mph - N/A Snow Light Snow
4:36 PM 21.2 °F 9.5 °F 17.6 °F 86% 29.95 in 2.5 mi NNW 11.5 mph - N/A Snow Light Snow
4:56 PM 19.4 °F 7.2 °F 17.6 °F 93% 29.96 in 2.5 mi North 11.5 mph 18.4 mph N/A Snow Light Snow
5:16 PM 19.4 °F 6.6 °F 17.6 °F 93% 29.98 in 0.8 mi NW 12.7 mph 20.7 mph N/A Snow Light Snow
5:36 PM 19.4 °F 7.9 °F 15.8 °F 86% 30.00 in 1.8 mi North 10.4 mph 19.6 mph N/A Snow Light Snow
5:56 PM 19.4 °F 7.9 °F 15.8 °F 86% 30.02 in 1.8 mi North 10.4 mph 18.4 mph N/A Snow Light Snow
6:16 PM 19.4 °F 7.9 °F 14.0 °F 80% 30.04 in 2.5 mi North 10.4 mph 17.3 mph N/A Snow Light Snow
6:36 PM 19.4 °F 7.9 °F 14.0 °F 80% 30.05 in 2.0 mi North 10.4 mph 20.7 mph N/A Snow Light Snow
6:56 PM 17.6 °F 6.4 °F 14.0 °F 86% 30.06 in 3.0 mi North 9.2 mph - N/A Snow Light Snow
7:16 PM 17.6 °F 1.7 °F 14.0 °F 86% 30.08 in 3.0 mi North 18.4 mph 25.3 mph N/A Snow Light Snow
7:36 PM 17.6 °F 6.4 °F 14.0 °F 86% 30.10 in 3.0 mi NNW 9.2 mph - N/A Snow Light Snow
7:56 PM 17.6 °F 3.2 °F 14.0 °F 86% 30.12 in 3.0 mi North 15.0 mph 25.3 mph N/A Snow Light Snow
8:16 PM 17.6 °F 5.0 °F 12.2 °F 79% 30.13 in 4.0 mi North 11.5 mph 19.6 mph N/A Snow Light Snow
8:36 PM 17.6 °F 6.4 °F 12.2 °F 79% 30.14 in 2.5 mi NNW 9.2 mph 16.1 mph N/A Snow Light Snow
8:56 PM 17.6 °F 4.3 °F 14.0 °F 86% 30.15 in 2.5 mi NNW 12.7 mph 17.3 mph N/A Snow Light Snow
9:16 PM 17.6 °F 3.7 °F 14.0 °F 86% 30.15 in 3.0 mi NNW 13.8 mph 19.6 mph N/A Snow Light Snow
9:36 PM 17.6 °F 4.3 °F 12.2 °F 79% 30.17 in 5.0 mi NNW 12.7 mph - N/A Snow Light Snow
9:56 PM 17.6 °F 5.7 °F 12.2 °F 79% 30.18 in 5.0 mi NNW 10.4 mph 16.1 mph N/A Snow Light Snow
10:16 PM 15.8 °F 3.4 °F 10.4 °F 79% 30.19 in 10.0 mi North 10.4 mph 19.6 mph N/A   Overcast
10:36 PM 15.8 °F 3.4 °F 10.4 °F 79% 30.20 in 10.0 mi North 10.4 mph 18.4 mph N/A   Overcast
10:56 PM 14.0 °F -0.2 °F 10.4 °F 86% 30.21 in 10.0 mi North 12.7 mph 16.1 mph N/A Snow Light Snow
11:16 PM 14.0 °F 2.9 °F 10.4 °F 86% 30.22 in 10.0 mi NNW 8.1 mph - N/A Snow Light Snow
11:36 PM 14.0 °F 1.2 °F 8.6 °F 79% 30.23 in 10.0 mi North 10.4 mph - N/A   Overcast
11:56 PM 14.0 °F 2.0 °F 8.6 °F 79% 30.25 in 10.0 mi NNW 9.2 mph - N/A   Overcast